Location: Melbourne
(37.8170°S, 144.9670°E)
Time: 15:20:24
(UTC+10:00)

Explorer 11/Cluster Stage 4 - Visible Passes

Search period start: 25 May 2015 00:00
Search period end: 04 June 2015 00:00
Orbit: 467 x 1272 km, 28.8° (Epoch: 23 May)

Date Brightness Start Highest point End Pass type
(mag) Time Alt. Az. Time Alt. Az. Time Alt. Az.
25 May 9.8 18:10:06 10° WNW 18:14:37 15° NNW 18:18:40 10° N visible
26 May 10.0 18:02:09 10° WNW 18:05:47 13° NNW 18:09:00 10° N visible
27 May 10.3 17:54:50 10° NW 17:56:58 11° NNW 17:58:38 10° NNW visible
